Meteo Giornale » Osservazioni meteo Messico » Mexico City-Licenci

ore: 11:45 - Osservazioni Meteo Mexico City-Licenci
Lat. 19° 26' N Lon. 99° 6' W Alt. 2238 metri s.l.m.

nuvoloso America/Mexico_City

20 °C

Nuvoloso

Temp. 24 Ore

12 °C

22 °C

Nord

5.5 Km/h

Dew point 4 °C

Umidità 34 %

Visibilità  10 Km

Il sole sorge alle ore 06:53

Il sole tramonta alle ore 17:58

Data e Ora Cielo e Fenomeni T °C DP °C Um. % Pres. hPa Vis. km Vento km/h
Oggi h: 11:45 nuvoloso Nuvoloso 20 4 34 1026 10 N 5.5
Oggi h: 10:45 nuvoloso Nuvoloso 19 5 39 1027 10 E 9.3
Oggi h: 09:45 poco_nuvoloso Poco Nuvoloso 18 6 45 1027 10 N 0
Oggi h: 08:45 poco_nuvoloso Poco Nuvoloso 16 6 51 1027 10 N 0
Oggi h: 07:45 nuvoloso Nuvoloso 14 6 58 1026 10 N 0
Oggi h: 06:49 molto_nuvoloso Molto Nuvoloso 12 6 66 1026 10 N 0
Oggi h: 05:49 molto_nuvoloso Molto Nuvoloso 13 7 66 1025 19 N 0
Oggi h: 04:45 molto_nuvoloso Molto Nuvoloso 13 6 62 1025 19 N 0
Oggi h: 03:45 molto_nuvoloso Molto Nuvoloso 12 6 66 1025 19 SE 9.3
Oggi h: 02:50 molto_nuvoloso Molto Nuvoloso 14 7 62 1025 10 SE 9.3
Oggi h: 01:54 molto_nuvoloso Molto Nuvoloso 14 7 62 1025 10 SE 9.3
Oggi h: 00:45 molto_nuvoloso Molto Nuvoloso 14 7 62 1025 10 E/SE 14.8
Ieri h: 22:45 molto_nuvoloso Molto Nuvoloso 14 7 62 1026 10 E/SE 18.5
Ieri h: 21:45 molto_nuvoloso Molto Nuvoloso 15 7 58 1026 10 S/SE 11.1
Ieri h: 20:46 molto_nuvoloso Molto Nuvoloso 16 7 55 1025 10 SE 11.1
Ieri h: 19:50 molto_nuvoloso Molto Nuvoloso 16 7 55 1025 10 E/SE 14.8
Ieri h: 19:29 molto_nuvoloso Molto Nuvoloso 16 7 55 1024 10 E/SE 20.3
Ieri h: 18:49 nuvoloso Nuvoloso 18 5 42 1024 10 N 5.5
Ieri h: 17:46 molto_nuvoloso Molto Nuvoloso 19 4 37 1023 13 O/SO 18.5
Ieri h: 16:40 molto_nuvoloso Molto Nuvoloso 19 7 45 1023 13 SE 18.5
Ieri h: 15:50 molto_nuvoloso Molto Nuvoloso 20 7 42 1022 13 SE 22.2
Ieri h: 14:45 molto_nuvoloso Molto Nuvoloso 20 6 39 1023 11 E/SE 18.5
Ieri h: 14:37 molto_nuvoloso Molto Nuvoloso 20 6 39 1023 10 E/SE 27.8
Ieri h: 13:45 molto_nuvoloso Molto Nuvoloso 22 5 32 1023 10 SE 13
Ieri h: 12:45 molto_nuvoloso Molto Nuvoloso 22 5 32 1025 10 SE 9.3
Ieri h: 11:51 nuvoloso Nuvoloso 21 5 35 1026 10 SO 9.3